San Juan, PR

2:21 PM AST on February 10, 2016 (GMT -0400)
Luis Munoz Marin International

Weather History for TJSJ - June, 2013

Change the Weather History Date:

Tuesday, June 18, 2013

  Actual Average Record
Temperature  
Mean Temperature 84 °F 83 °F  
Max Temperature 88 °F 89 °F 94 °F (1983)
Min Temperature 79 °F 78 °F 69 °F (1909)
Degree Days  
Heating Degree Days 0 0  
Month to date heating degree days 0 0  
Since 1 June heating degree days 0 0  
Since 1 July heating degree days 0 0  
Cooling Degree Days 19 18  
Month to date cooling degree days 317 324  
Year to date cooling degree days 2565 2489  
Since 1 June cooling degree days 317 324  
Growing Degree Days 34 (Base 50)    
Moisture  
Dew Point 75 °F    
Average Humidity 77    
Maximum Humidity 85    
Minimum Humidity 68    
Precipitation  
Precipitation 0.00 in 0.14 in 2.32 in (1949)
Month to date precipitation 5.57 2.78  
Year to date precipitation 30.10 21.46  
Sea Level Pressure  
Sea Level Pressure 30.04 in    
Wind  
Wind Speed 13 mph (ENE)    
Max Wind Speed 23 mph    
Max Gust Speed 29 mph    
Visibility 9 miles    
Events      
T = Trace of Precipitation, MM = Missing Value Source: NWS Daily Summary

Daily Weather History Graph

Daily Weather History Graph

Search for Another Location

Airport or City:

Trip Planner

Search our weather history database for the weather conditions in past years. The results will help you decide how hot, cold, wet, or windy it might be!

Date:

Astronomy

Jun. 18, 2013 Rise Set
Actual Time 5:48 AM AST 7:02 PM AST
Civil Twilight 5:23 AM AST 7:26 PM AST
Nautical Twilight 4:55 AM AST 7:55 PM AST
Astronomical Twilight 4:25 AM AST 8:25 PM AST
Moon 2:12 PM AST (6/18) 1:18 AM AST (6/18)
Length of Visible Light 14h 02m
Length of Day
13h 14m
Waxing Gibbous, 70% of the Moon is Illuminated
Jun 18
Waxing Gibbous
Jun 23
Full
Jun 30
Last Quarter
Jul 8
New
Jul 15
First Quarter

Hourly Weather History & Observations

Time (AST) Temp. Heat Index Dew Point Humidity Pressure Visibility Wind Dir Wind Speed Gust Speed Precip Events Conditions
12:56 AM 79.0 °F - 73.0 °F 82% 30.05 in 10.0 mi East 8.1 mph - N/A   Scattered Clouds
1:56 AM 79.0 °F - 73.0 °F 82% 30.02 in 10.0 mi East 6.9 mph - N/A   Mostly Cloudy
2:56 AM 79.0 °F - 73.0 °F 82% 30.03 in 10.0 mi East 8.1 mph - N/A   Scattered Clouds
3:56 AM 79.0 °F - 73.0 °F 82% 30.02 in 10.0 mi East 6.9 mph - N/A   Scattered Clouds
4:56 AM 79.0 °F - 73.0 °F 82% 30.03 in 10.0 mi East 9.2 mph - N/A   Mostly Cloudy
5:56 AM 80.1 °F 84.5 °F 73.9 °F 81% 30.04 in 8.0 mi ENE 8.1 mph - N/A   Mostly Cloudy
6:56 AM 81.0 °F 86.2 °F 73.9 °F 79% 30.06 in 9.0 mi ENE 12.7 mph - N/A   Scattered Clouds
7:56 AM 82.0 °F 87.9 °F 73.9 °F 76% 30.07 in 9.0 mi ENE 12.7 mph - N/A   Scattered Clouds
8:56 AM 84.0 °F 91.9 °F 75.0 °F 74% 30.08 in 9.0 mi NE 15.0 mph - N/A   Scattered Clouds
9:56 AM 86.0 °F 95.1 °F 75.0 °F 70% 30.08 in 9.0 mi East 17.3 mph 24.2 mph N/A   Scattered Clouds
10:56 AM 86.0 °F 95.1 °F 75.0 °F 70% 30.08 in 9.0 mi ENE 19.6 mph 28.8 mph N/A   Scattered Clouds
11:56 AM 87.1 °F 97.3 °F 75.9 °F 69% 30.07 in 9.0 mi ENE 15.0 mph 25.3 mph N/A   Scattered Clouds
12:56 PM 86.0 °F 96.0 °F 75.9 °F 72% 30.05 in 9.0 mi NE 15.0 mph 24.2 mph N/A   Scattered Clouds
1:56 PM 86.0 °F 95.1 °F 75.0 °F 70% 30.04 in 9.0 mi East 21.9 mph 27.6 mph N/A   Scattered Clouds
2:56 PM 87.1 °F 97.3 °F 75.9 °F 69% 30.01 in 9.0 mi ENE 18.4 mph 25.3 mph N/A   Scattered Clouds
3:56 PM 86.0 °F 96.0 °F 75.9 °F 72% 30.00 in 9.0 mi ENE 19.6 mph 25.3 mph N/A   Scattered Clouds
4:56 PM 84.9 °F 94.1 °F 75.9 °F 74% 30.00 in 9.0 mi ENE 15.0 mph - N/A   Scattered Clouds
5:56 PM 82.9 °F 90.2 °F 75.0 °F 77% 30.01 in 9.0 mi ENE 16.1 mph 24.2 mph N/A   Partly Cloudy
6:56 PM 82.0 °F 89.4 °F 75.9 °F 82% 30.03 in 9.0 mi ENE 17.3 mph 23.0 mph N/A   Scattered Clouds
7:56 PM 82.0 °F 89.4 °F 75.9 °F 82% 30.04 in 10.0 mi ENE 12.7 mph - N/A   Scattered Clouds
8:56 PM 81.0 °F 86.7 °F 75.0 °F 82% 30.06 in 10.0 mi East 12.7 mph - N/A   Scattered Clouds
9:56 PM 81.0 °F 86.7 °F 75.0 °F 82% 30.07 in 10.0 mi ENE 13.8 mph 20.7 mph N/A   Scattered Clouds
10:56 PM 81.0 °F 86.7 °F 75.0 °F 82% 30.06 in 10.0 mi ENE 10.4 mph - N/A   Mostly Cloudy
11:56 PM 80.1 °F 85.1 °F 75.0 °F 85% 30.05 in 10.0 mi East 9.2 mph - N/A   Mostly Cloudy